Location: San Antonio
(29.4240°N, 98.4930°W)
Time: 07:10:51
(UTC-05:00)

ACS3 Solar Sail - Visible Passes

Search period start: 18 June 2024 00:00
Search period end: 28 June 2024 00:00
Orbit: 992 x 1024 km, 97.4° (Epoch: 17 June)

Date Brightness Start Highest point End Pass type
(mag) Time Alt. Az. Time Alt. Az. Time Alt. Az.
18 Jun 5.3 22:43:11 38° ESE 22:44:25 43° ENE 22:50:13 10° N visible
19 Jun 6.5 00:28:32 22° W 00:28:34 22° W 00:33:17 10° NW visible
19 Jun 4.7 23:17:59 72° SSE 23:18:42 87° ENE 23:24:57 10° N visible
20 Jun 6.2 22:07:26 19° E 22:09:26 22° ENE 22:13:58 10° NNE visible
20 Jun 5.5 23:52:47 45° WSW 23:53:08 45° W 23:59:04 10° NNW visible
21 Jun 5.3 22:42:14 39° ESE 22:43:33 44° ENE 22:49:23 10° N visible
22 Jun 6.5 00:27:34 21° W 00:27:44 21° W 00:32:20 10° NW visible
22 Jun 4.7 23:17:01 70° SSE 23:17:50 90° W 23:24:05 10° N visible
23 Jun 6.2 22:06:29 19° E 22:08:34 22° ENE 22:13:11 10° NNE visible
23 Jun 5.5 23:51:49 43° WSW 23:52:17 43° W 23:58:10 10° NNW visible
24 Jun 5.2 22:41:16 39° ESE 22:42:41 46° ENE 22:48:33 10° N visible
25 Jun 6.6 00:26:37 20° W 00:26:53 21° W 00:31:22 10° NW visible
25 Jun 6.8 21:32:42 10° ENE 21:33:46 10° ENE 21:34:48 10° NE visible
25 Jun 4.7 23:16:04 67° S 23:16:59 87° WSW 23:23:13 10° NNW visible
26 Jun 6.1 22:05:31 19° E 22:07:41 23° ENE 22:12:24 10° NNE visible
26 Jun 5.6 23:50:52 41° WSW 23:51:25 42° W 23:57:16 10° NNW visible
27 Jun 5.2 22:40:19 40° ESE 22:41:49 47° ENE 22:47:43 10° N visible
